Время (UTC), дата Ветер
(°,м/с) 
Видим.   Явления Облачность Т
(°С)
Тd
(°С)
f(%) Тe
(°С)
Pmin
(гПа)
dP
(гПа)
Po
(мм)
O2
(г/м3)
Тmin Tmax R s Состояние
почвы
00 01.03.11 110 (В) 3000 м  слаб. снег  10/10 180 м 
[Ns]
-6 -6.6 95 -11  1028.5  0.2  728  301           
03 01.03.11 100 (В) 10 км  слаб. снег  10/10 210 м 
[Ns]
-6.6 -7.2 95 -12  1029.3  0.6  729  302        25  очень
неравномерный
сухой снег
(сугробы, заносы) 
06 01.03.11 100 (В) >10 км  {снег}  9/0 средняя 
[Ac trans]
-6.4 -7 96 -11  1030.1  0.8  729  302  -7.1    0.4  25  очень
неравномерный
сухой снег
(сугробы, заносы) 
09 01.03.11 110 (В) >10 км  позёмок  9/3 300 м средняя 
[Sc|Ac trans]
-4.4 -5.7 91 -9  1030.1  0.3  730  299           
12 01.03.11 100 (В) >10 км    8/4 300 м средняя 
[Sc|Ac trans]
-3.2 -4.5 91 -8  1029.7  0.1  730  298           
15 01.03.11 110 (В) >10 км    10/3 300 м средняя, верхняя 
[Sc|Ac trans|Ci fib]
-4.3 -5.6 91 -9  1030.5  0.5  730  299           
18 01.03.11 120 (ЮВ) >10 км    10/3 300 м средняя 
[Sc|Ac und]
-4.2 -5.2 93 -8  1030.1  -0.3  730  299    -3       
21 01.03.11 120 (ЮВ) >10 км    10/3 600 м средняя 
[Sc|Ac und]
-3.8 -5 91 -7  1029.2  -0.7  729  298           
00 02.03.11 100 (В) 10 км    10/5 360 м средняя 
[Sc|Ac und]
-4.6 -5.8 91 -8  1029  -0.4  729  299           
03 02.03.11 110 (В) 10 км  слаб. снег  10/10 150 м 
[Ns]
-4.4 -4.9 96 -8  1028.6  -0.3  729  299        26  очень
неравномерный
сухой снег
(сугробы, заносы) 
06 02.03.11 100 (В) 4000 м  слаб. снег  10/10 420 м 
[Ns]
-5 -5.5 96 -8  1029.3  0.5  729  300  -6    0.2  26  очень
неравномерный
сухой снег
(сугробы, заносы) 
09 02.03.11 120 (ЮВ) >10 км  в посл. час снег  10/10 300 м 
[Sc]
-2.7 -3.7 93 -6  1028.6  0.5  729  297           
12 02.03.11 090 (В) >10 км  {снег}  10/6 360 м средняя 
[Sc|Ac trans]
-2.3 -3.8 89 -6  1028  -0.6  729  296           
15 02.03.11 090 (В) 2000 м  слаб. ливневой снег  10/6 180 м кучево-дожд., средняя 
[Cb cap|Ac As]
-3.4 -3.8 97 -7  1028.9  0.6  729  298           
18 02.03.11 110 (В) 2500 м  слаб. ливневой снег  10/6 120 м кучево-дожд., средняя 
[Cb cap|Ac As]
-4.6 -5.1 96 -8  1030  0.8  730  300    -1.7  0.8     
21 02.03.11 070 (В) 3000 м  слаб. ливневой снег  10/8 120 м кучево-дожд., средняя 
[Cb calv|Ac und]
-4.8 -5.3 96 -8  1030.4  0.4  730  300           
00 03.03.11 080 (В) 10 км  {ливн. осадки}  10/8 210 м средняя 
[St|Ac und]
-6.2 -7.8 88 -8  1031.4  0.6  730  302           
03 03.03.11 тихо ()   10 км  слаб. снег  10/10 180 м 
[St]
-6.7 -7.8 92 -7  1032.1  0.6  731  303        31  очень
неравномерный
сухой снег
(сугробы, заносы) 
06 03.03.11 тихо ()   10 км  слаб. снег  10/6 330 м средняя 
[Sc|Ac As]
-3.8 -5 91 -4  1032.1  0.6  731  299  -6.8    0.6  31  очень
неравномерный
сухой снег
(сугробы, заносы) 
09 03.03.11 360 (С) >10 км  в посл. час снег  10/10 360 м 
[Sc]
-3.8 -5.1 91 -6  1031.5  -0.6  731  299           
12 03.03.11 270 (З) >10 км  {снег}  10/6 400 м средняя 
[Sc|Ac As]
-3.7 -6 84 -7  1030.6  -0.8  730  299           
15 03.03.11 280 (З) >10 км    6/3 600 м средняя 
[Sc|Ac trans]
-5.2 -7 87 -8  1030.2  -0.7  730  300           
18 03.03.11 290 (З) >10 км    4/3 600 м средняя 
[Sc|Ac trans]
-6.8 -13.2 60 -9  1030.3  -0.2  730  303    -1.7       
21 03.03.11 270 (З) >10 км    6/6 600 м 
[Sc]
-7.9 -10.8 80 -12  1029.9  -0.6  729  303           
00 04.03.11 270 (З) 4000 м  слаб. снег  10/10 600 м 
[Sc]
-8.3 -9.9 88 -13  1028.8  -1.1  728  304           
03 04.03.11 270 (З) 10 км  слаб. снег  10/10 210 м 
[Ns]
-8.9 -10 92 -13  1029.5  -1.1  729  304           
06 04.03.11 270 (З) 10 км  в посл. час снег  4/4 300 м 
[Sc]
-8 -10.3 84 -13  1029.7  0.5  729  304  -10.4    0.9  28  очень
неравномерный
сухой снег
(сугробы, заносы) 
09 04.03.11 280 (З) 10 км  {снег}  6/6 400 м 
[Sc]
-5.6 -9 77 -10  1028.6  -0.6  728  301           
12 04.03.11 260 (З) 10 км  {снег}  5/5 300 м 
[Sc]
-5 -7.9 80 -10  1026.3  -2.1  727  299           
15 04.03.11 270 (З) 10 км    9/1 300 м верхняя 
[Sc|Ci fib]
-5.4 -7.4 86 -10  1025.4  -0.9  726  299           
18 04.03.11 250 (З) >10 км  позёмок  6/0 средняя 
[Ac trans]
-5.2 -7.4 85 -11  1024.5  -0.8  726  299    -4.5       
21 04.03.11 270 (З) 10  10 км  позёмок  6/0 средняя 
[Ac trans]
-4.5 -7.3 81 -10  1023.6  -0.6  725  298           
00 05.03.11 260 (З) 12  10 км  позёмок  4/4 300 м 
[Sc]
-2.3 -5.7 78 -8  1021.1  -1.9  724  295           
03 05.03.11 270 (З) 13-18{20}  10 км  позёмок  8/0 средняя 
[Ac trans]
-2 -4.8 81 -8  1020.2  -0.8  723  294        38  очень
неравномерный
сухой снег
(сугробы, заносы) 
06 05.03.11 270 (З) 12  >10 км  позёмок  8/5 300 м средняя 
[Sc|Ac trans]
-2 -4.3 84 -8  1020.3  0.1  723  294  -5.3      38  очень
неравномерный
сухой снег
(сугробы, заносы) 
09 05.03.11 270 (З) 13{20}  >10 км  позёмок  8/5 300 м средняя 
[Sc|Ac trans]
+0.1 -2.8 81 -6  1018.7  -1.1  722  291           
12 05.03.11 270 (З) 12-19{21}  >10 км  позёмок  8/6 300 м средняя 
[Sc|Ac trans]
+1.8 -1.6 78 -3  1016.3  -1.9  721  289           
15 05.03.11 260 (З) 10{19}  >10 км    8/4 300 м средняя 
[Sc|Ac trans]
+1.5 -2.3 76 -3  1015  -1.2  720  289           
18 05.03.11 270 (З) >10 км    8/4 300 м средняя 
[Sc|Ac und]
+0.1 -3.5 77 -4  1014  -1.2  719  290    +1.9       
21 05.03.11 250 (З) >10 км    3/3 600 м 
[Sc]
-1.1 -3.9 81 -5  1012.9  -1.3  718  291           
00 06.03.11 270 (З) >10 км    ясно 
-1.1 -4.2 79 -6  1011.7  -1.2  717  291           
03 06.03.11 260 (З) >10 км    4/0 средняя 
[Ac trans]
-1.2 -4 81 -4  1010.3  -1.3  720  292        29  очень
неравномерный
сухой снег
(сугробы, заносы) 
06 06.03.11 140 (ЮВ) >10 км    3/0 верхняя 
[Ci fib]
+1 -3.4 72 -1  1009.9  716  288  -1.8      33  очень
неравномерный
сухой снег
(сугробы, заносы) 
09 06.03.11 150 (ЮВ) >10 км    3/0 средняя 
[Ac trans]
+6 -4.5 47 +7  1007.1  -1.6  715  282           
12 06.03.11 180 (Ю) >10 км    3/0 средняя, верхняя 
[Ac trans|Ci fib]
+6.9 -2.4 52 +6  1006.3  -0.6  715  281           
15 06.03.11 160 (Ю) >10 км    3/0 средняя, верхняя 
[Ac trans|Ci fib]
+2.3 -3 68 +1  1006.2  -1  714  285           
18 06.03.11 210 (ЮЗ) >10 км    3/0 средняя 
[Ac trans]
+0.2 -6.2 62 -1  1006.8  0.1  714  288    +7.3       
21 06.03.11 310 (СЗ) >10 км    3/0 средняя 
[Ac trans]
+1.3 -3.8 69 -1  1006.5  714  287           
00 07.03.11 320 (СЗ) >10 км    10/6 480 м средняя 
[Sc|Ac und]
+0.3 -1.6 87 -1  1008.4  1.7  715  288           
03 07.03.11 300 (СЗ) 2000 м  слаб. ливневой снег  10/6 300 м кучево-дожд., средняя 
[Cb cap|Ac und]
-0.9 -1.3 97 -4  1010.7  1.8  716  290           
06 07.03.11 290 (З) 4000 м  слаб. ливневой снег  10/6 180 м кучево-дожд., средняя 
[Cb cap|Ac und]
-1.5 -2.3 94 -6  1013.4  2.5  718  291  -1.6    31  очень
неравномерный
сухой снег
(сугробы, заносы) 
09 07.03.11 290 (З) 4000 м  дымка{ливн. осадки}  10/10 180 м 
[St]
-2.3 -2.9 96 -6  1015.8  2.5  720  293           
12 07.03.11 340 (С) 1000 м  снег{ливн. осадки}  10/10 150 м 
[Ns]
-1.7 -2.4 95 -4  1017.7  1.9  721  293           
15 07.03.11 320 (СЗ) 2000 м  слаб. снег  10/10 150 м 
[Ns]
-2.2 -2.8 96 -3  1020.2  2.2  723  294           
18 07.03.11 340 (С) 2000 м  слаб. снег  10/10 180 м 
[Ns]
-2.7 -3.1 97 -4  1022.5  725  295    -1.4  0.9     
21 07.03.11 030 (СВ) 10 км  слаб. снег  10/8 150 м средняя 
[St|Ac und]
-3 -3.3 98 -5  1023.8  1.2  726  296           
00 08.03.11 040 (СВ) 10 км  {снег}  10/6 420 м средняя 
[Sc|Ac und]
-4.1 -4.6 96 -5  1025.3  1.1  726  298           
03 08.03.11 080 (В) 2000 м  дымка  10/10 120 м 
[St]
-4.6 -5 97 -8  1026.6  1.1  727  299        32  очень
неравномерный
сухой снег
(сугробы, заносы) 
06 08.03.11 090 (В) 4000 м  дымка{туман}  10/10 150 м 
[St]
-4.2 -4.7 96 -7  1027.3  1.1  728  298  -5.3    32  очень
неравномерный
сухой снег
(сугробы, заносы) 
09 08.03.11 090 (В) >10 км    9/8 180 м средняя 
[St|Ac trans]
-1.8 -4.7 81 -6  1026.5  -0.3  728  296           
12 08.03.11 100 (В) >10 км    9/5 300 м средняя 
[Sc|Ac trans]
-0.4 -4.8 72 -5  1025.7  -0.4  727  294           
15 08.03.11 110 (В) >10 км    9/5 300 м средняя 
[Sc|Ac trans]
-1.4 -5.1 76 -6  1026.3  0.3  728  295           
18 08.03.11 090 (В) >10 км    9/4 300 м средняя 
[Sc|Ac trans]
-2.4 -6.6 73 -8  1026.3  -0.2  727  296    +0.1       
21 08.03.11 090 (В) >10 км    10/4 300 м средняя 
[Sc|Ac und]
-3 -7.4 72 -8  1025.9  -0.5  727  297           
00 09.03.11 090 (В) >10 км    10/4 600 м средняя 
[Sc|Ac und]
-3.7 -6.7 80 -9  1024.9  -1  726  297           
03 09.03.11 100 (В) 11  >10 км    10/4 600 м средняя 
[Sc|Ac und]
-3.6 -8.4 69 -10  1025  0.1  726  297        27  мокрый или
старый снег
50-90% 
06 09.03.11 110 (В) 14{19}  >10 км    6/3 600 м средняя 
[Sc|Ac trans]
-2.4 -7.7 67 -9  1024.4  -0.3  726  296           
09 09.03.11 110 (В) 15-20{20}  >10 км    8/4 300 м средняя, верхняя 
[Sc|Ac trans|Ci fib]
-0.1 -5.8 66 -6  1023.2  -0.7  725  293           
12 09.03.11 100 (В) 15-19{21}  >10 км    5/3 300 м средняя 
[Sc|Ac trans]
+0.6 -7.8 53 -5  1021.5  -1.5  724  292           
15 09.03.11 110 (В) 11-18{21}  >10 км    4/3 300 м средняя 
[Sc|Ac trans]
-1.9 -7.6 65 -8  1021.7  -0.3  724  295           
18 09.03.11 110 (В) 12{18}  >10 км    3/0 средняя 
[Ac trans]
-3.7 -8.3 70 -10  1021.6  -0.4  724  296           
21 09.03.11 100 (В) 12  >10 км    3/0 средняя 
[Ac trans]
-6.1 -7.8 88 -13  1020.4  -1.7  723  299           
00 10.03.11 100 (В) 12{18}  10 км    10/6 240 м средняя 
[St|Ac und]
-5.5 -6.4 93 -12  1018.6  -1.5  721  297           
03 10.03.11 110 (В) 12{18}  2000 м  дымка  10/10 100 м 
[St]
-5.8 -6.4 95 -13  1017.8  -0.8  721  297        24  мокрый или
старый снег
10-40% 
06 10.03.11 100 (В) 12-18{18}  10 км    10/10 100 м 
[St]
-5.1 -5.7 96 -12  1016.7  -0.9  720  296           
09 10.03.11 100 (В) 11{19}  3000 м  снежные зёрна  10/10 100 м 
[St]
-4.3 -4.7 97 -11  1017.6  721  296           
12 10.03.11 110 (В) 1400 м  снежные зёрна  10/10 60 м 
[St]
-4 -4.4 97 -9  1018.1  0.5  721  295           
15 10.03.11 100 (В) 1100 м  сильн. снег  10/10 100 м 
[Ns]
-3.7 -4.1 97 -8  1018.9  0.8  722  295           
18 10.03.11 100 (В) 1400 м  сильн. снег  10/10 60 м 
[Ns]
-3.7 -4.1 97 -8  1018.8  0.1  722  295    -3.7     
21 10.03.11 100 (В) 10 км  {снег}  10/10 120 м 
[St]
-4.2 -4.6 97 -8  1018.6  -0.2  722  296           
00 11.03.11 100 (В) 2000 м  снег  10/10 100 м 
[Ns]
-4.2 -4.6 97 -8  1018.1  -0.5  721  296           
03 11.03.11 120 (ЮВ) 3000 м  снег  10/10 100 м 
[Ns]
-4 -4.4 97 -7  1018  0.1  721  295        31  очень
неравномерный
сухой снег
(сугробы, заносы) 
06 11.03.11 130 (ЮВ) 3000 м  снег  10/10 100 м 
[Ns]
-2.9 -3.2 98 -5  1018.8  722  294  -4.2    31  очень
неравномерный
сухой снег
(сугробы, заносы) 
09 11.03.11 170 (Ю) >10 км  {снег}  10/4 300 м средняя 
[Sc|Ac und]
+0.8 +0.4 97 -1  1017.7  -0.3  722  290           
12 11.03.11 270 (З) >10 км  {снег}  10/4 500 м средняя 
[Sc|Ac und]
+3.1 +0.6 84 1017.9  0.7  722  288           
15 11.03.11 310 (СЗ) >10 км    10/6 600 м средняя 
[Sc|Ac und]
+1.8 +0.3 90 +3  1019.3  723  289           
18 11.03.11 240 (ЮЗ) >10 км    10/5 630 м средняя 
[Sc|Ac und]
+1.3 -0.4 88 +1  1020.3  0.9  724  290    +3.5       
21 11.03.11 270 (З) >10 км    6/3 1000 м средняя 
[Sc|Ac trans]
+2 -1 81 -1  1020.4  0.2  724  290           
00 12.03.11 270 (З) >10 км    8/0 средняя 
[Ac trans]
+1.6 -1.6 79 -2  1021  0.5  724  290           
03 12.03.11 270 (З) >10 км    10/4 420 м средняя 
[Sc|Ac und]
+1.6 -1.5 80 -1  1022.1  1.4  725  291        22  мокрый или
старый снег
50-90% 
06 12.03.11 260 (З) >10 км    10/4 300 м средняя 
[Sc|Ac und]
+1.6 -1.6 79 -2  1021  0.5  724  290        22  мокрый или
старый снег
50-90% 
09 12.03.11 270 (З) >10 км  слаб. снег  10/8 300 м средняя 
[Sc|Ac und]
+1.9 +0.1 88 -2  1024.1  726  291           
12 12.03.11 270 (З) >10 км  {снег}  10/8 330 м средняя 
[Sc|Ac und]
+1.8 -0.1 87 -1  1024.1  727  291           
15 12.03.11 280 (З) 10 км  слаб. ливневой снег  10/8 210 м кучево-дожд., средняя 
[Cb cap|Ac und]
+0.9 -0.1 93 -2  1025.2  0.8  727  292           
18 12.03.11 280 (З) 2500 м  слаб. ливневой снег  10/8 120 м кучево-дожд., средняя 
[Cb cap|Ac und]
-0.2 -0.6 97 -1  1026.7  1.2  728  294    +2.3       
21 12.03.11 280 (З) 2500 м  слаб. ливневой снег  10/8 60 м кучево-дожд., средняя 
[Cb cap|Ac und]
-0.5 -0.7 98 -3  1026.8  728  294           
00 13.03.11 280 (З) 3000 м  слаб. ливневой снег  10/8 180 м кучево-дожд., средняя 
[Cb cap|Ac und]
-0.9 -1.1 99 -3  1027.5  0.6  728  295           
03 13.03.11 280 (З) 10 км  в посл. час ливневой снег  10/5 400 м кучево-дожд., средняя 
[Cb calv|Ac und]
-1.4 -1.7 98 -3  1029  1.4  729  296           
06 13.03.11 260 (З) >10 км  {ливн. осадки}  8/3 300 м средняя 
[Sc|Ac trans]
-0.6 -1.1 96 -3  1031.3  2.3  731  295  -1.6    33  неравномерный
мокрый или
старый снег
100% 
09 13.03.11 260 (З) >10 км    3/3 300 м 
[Sc]
+2.1 -1.4 78 -1  1031.6  0.8  732  293           
12 13.03.11 280 (З) >10 км    3/3 300 м 
[Sc]
+3.5 -2.6 64 +2  1031.9  0.5  732  292           
15 13.03.11 290 (З) >10 км    3/3 300 м 
[Sc]
+2.5 -3.4 65 +2  1033.5  1.3  733  293           
18 13.03.11 230 (ЮЗ) >10 км    3/0 средняя 
[Ac trans]
-1.8 -4.7 81 -3  1035.7  1.2  734  298    +3.9       
21 13.03.11 220 (ЮЗ) >10 км    ясно 
-1.3 -4.7 78 -3  1034.7  -0.8  734  297           
00 14.03.11 210 (ЮЗ) >10 км    ясно 
-1.7 -5.6 75 -1  1035.1  0.2  734  298           
03 14.03.11 140 (ЮВ) >10 км    ясно 
-1.3 -6.5 68 -2  1035  734  298           
06 14.03.11 120 (ЮВ) >10 км    ясно <0100 м 
+2.1 -3.1 68 1035.1  0.8  734  294  -2.8      26  мокрый или
старый снег
10-40% 
09 14.03.11 120 (ЮВ) >10 км    3/0 верхняя 
[Ci fib]
+5.9 -5.1 45 +4  1033.6  -0.6  734  290           
12 14.03.11 120 (ЮВ) >10 км    6/0 верхняя 
[Ci fib]
+8.1 -5.7 37 +7  1032.3  -2.2  733  287           
15 14.03.11 150 (ЮВ) >10 км    8/0 верхняя 
[Ci fib]
+4.5 -1.8 64 +3  1032.4  733  291           
18 14.03.11 130 (ЮВ) >10 км    6/0 средняя 
[Ac trans]
+1.3 -6.9 54 -1  1033.4  0.2  733  295           
21 14.03.11 130 (ЮВ) >10 км    5/0 средняя 
[Ac trans]
+0.8 -9.2 47 -1  1032.6  -0.9  732  295           
00 15.03.11 130 (ЮВ) >10 км    5/0 средняя 
[Ac trans]
-0.1 -4.8 71 -3  1031.8  -0.9  732  295           
03 15.03.11 160 (Ю) >10 км    3/0 средняя 
[Ac trans]
-1.1 -4.9 75 -3  1031.6  -0.3  731  296        21  мокрый или
старый снег
10-40% 
06 15.03.11 140 (ЮВ) >10 км    3/0 верхняя 
[Ci fib]
+4.7 -3.8 54 +3  1030.3  0.1  731  290  -1.6      21  мокрый или
старый снег
10-40% 
09 15.03.11 150 (ЮВ) >10 км    3/0 верхняя 
[Ci fib]
+10.1 -4.3 36 +9  1028  -1.1  730  284           
12 15.03.11 170 (Ю) >10 км    3/0 верхняя 
[Ci fib]
+12.8 -1.4 37 +12  1025.7  -1.6  729  281           
15 15.03.11 160 (Ю) >10 км    3/0 верхняя 
[Ci fib]
+8.7 -1.4 49 +8  1025.8  -0.7  729  285           
18 15.03.11 210 (ЮЗ) >10 км    3/0 верхняя 
[Ci fib]
+4.1 -3.4 58 +3  1026.7  0.1  729  290    +12.9       
21 15.03.11 220 (ЮЗ) >10 км    10/0 верхняя 
[Ci fib]
+4.2 -5.1 51 +4  1025.8  -0.8  728  289           
00 16.03.11 310 (СЗ) 2000 м  в посл. час морось  3/0 верхняя 
[Ci fib]
+5.8 -3.5 51 +7  1024.4  -1  727  287           
03 16.03.11 190 (Ю) >10 км    4/0 верхняя 
[Ci fib]
+5 -3.8 53 +6  1024  -0.6  727  288        17  мокрый или
старый снег
10-40% 
06 16.03.11 150 (ЮВ) >10 км    5/0 средняя 
[Ac trans]
+11.8 -3.7 34 +12  1022.4  -0.3  727  281  +2.3      17  мокрый или
старый снег
10-40% 
09 16.03.11 310 (СЗ) >10 км    6/0 средняя, верхняя 
[Ac trans|Ci sp]
+15.3 -5.6 23 +16  1020.4  -1.3  726  277           
12 16.03.11 280 (З) н/о    н/о 
+14.7 -4.1 27 +14  1019  -1.4  725  277           
15 16.03.11 300 (СЗ) >10 км    6/0 средняя 
[Ac trans]
+11.3 -0.1 45 +10  1019.9  0.3  725  280           
18 16.03.11 350 (С) >10 км    8/0 средняя 
[Ac trans]
+8.4 +2.9 68 +8  1021.4  0.9  725  283    +16.7       
21 16.03.11 360 (С) 4000 м  дымка  8/0 средняя 
[Ac trans]
+4.1 +3.6 97 +5  1022.3  726  287           
00 17.03.11 340 (С) 0100 м  туман  ?/?  
+3.7 +3.5 99 +3  1022.1  -0.3  725  288           
03 17.03.11 010 (С) 0100 м  туман  ?/?  
+1.7 +1.6 99 1022.8  0.3  725  290           
06 17.03.11 130 (ЮВ) 0200 м  слаб. дождь{туман}  ?/?  
+0.6 +0.5 99 1023.7  0.6  726  292  -0.2      мокрый или
старый снег
10-40% 
09 17.03.11 080 (В) 0300 м  слаб. дождь{туман}  ?/?  
+1.3 +1.2 99 +2  1022.5  -0.9  725  291           
12 17.03.11 040 (СВ) 0200 м  слаб. морось{дождь}  ?/?  
+1.3 +1.1 99 1022  -0.5  725  290           
15 17.03.11 060 (СВ) 0200 м  слаб. снег{дождь}  ?/?  
-0.4 -0.5 99 -1  1022.8  0.4  725  293           
18 17.03.11 060 (СВ) 0200 м  туман{снег, дождь} [диам. гололёда 1 мм]  10/0 
-0.8 -0.8 100 -3  1022.5  -0.4  725  293    +2.4     
21 17.03.11 060 (СВ) 0200 м  слаб. морось{туман}  ?/?  
-1 -1.1 99 -2  1021.6  -0.9  724  293           
00 18.03.11 350 (С) н/о    н/о 
-1 -1.1 99 -3  1021.5  0.1  724  293           
03 18.03.11 010 (С) 3000 м  снег  10/10 180 м 
[Ns]
-1.8 -2.3 96 -4  1022.3  0.4  725  294        сухой снег
50-90% 
06 18.03.11 040 (СВ) 0200 м  слаб. снег{туман}  ?/?  
-1.9 -2.1 99 -1  1023.2  725  294          сухой снег
50-90% 
09 18.03.11 100 (В) 4000 м  слаб. снег{туман}  10/10 100 м 
[Ns]
-0.8 -1 99 -3  1021.6  -1.3  724  293           
12 18.03.11 070 (В) 4000 м  слаб. снег{туман}  10/10 180 м 
[Ns]
-0.8 -0.9 99 -3  1021.6  724  293           
15 18.03.11 120 (ЮВ) 0600 м  туман{снег}  ?/?  
-1 -1.1 99 -3  1021.9  0.2  725  293           
18 18.03.11 060 (СВ) 0200 м  слаб. ливневой снег  ?/?  
-1 -1.1 99 -2  1021.7  -0.2  724  293    -0.6  0.5     
21 18.03.11 060 (СВ) 0200 м  слаб. ливневой снег{туман}  ?/?  
-0.8 -0.9 99 -3  1020.6  -0.9  724  292           
00 19.03.11 100 (В) 0100 м  слаб. ливневой снег{туман}  ?/?  
-0.8 -0.9 99 -3  1019.2  -1.4  723  292           
03 19.03.11 070 (В) 0300 м  слаб. ливневой снег{туман}  ?/?  
-0.8 -0.9 99 -3  1019  0.1  722  292           
06 19.03.11 090 (В) 0300 м  слаб. ливневой снег{туман}  ?/?  
-0.9 -1 99 -5  1019.6  0.4  723  292  -1.1    11  неравномерный
мокрый или
старый снег
100% 
09 19.03.11 100 (В) 0700 м  слаб. дождь{ливн. осадки} [диам. гололёда 2 мм]  ?/?  
-0.3 -0.4 99 -3  1020  0.4  723  292           
12 19.03.11 100 (В) 0200 м  слаб. дождь{ливн. осадки}  ?/?  
-0.2 -0.3 99 1019.8  -0.2  723  292           
15 19.03.11 110 (В) 0200 м  слаб. переохл. дождь (гололёд){туман} [диам. гололёда 1 мм]  ?/?  
-0.3 -0.3 100 1020.5  0.7  724  292           
18 19.03.11 110 (В) 0300 м  слаб. ливневой снег{дождь} [диам. гололёда 1 мм]  ?/?  
-0.5 -0.5 100 1021.3  0.6  724  292    -0.2     
21 19.03.11 120 (ЮВ) 0200 м  туман{ливн. осадки} [диам. гололёда 2 мм]  ?/?  
-0.5 -0.6 99 1021.2  0.1  724  292           
00 20.03.11 130 (ЮВ) 0200 м  туман{ливн. осадки} [диам. гололёда 4 мм]  ?/?  
-0.7 -0.8 99 1021.8  0.2  724  293           
03 20.03.11 100 (В) 0200 м  туман [диам. гололёда 8 мм]  ?/?  
-0.9 -0.9 100 -2  1023.2  1.3  725  293        12  неравномерный
мокрый или
старый снег
100% 
06 20.03.11 110 (В) 0200 м  туман [диам. гололёда 9 мм]  10/10 <0100 м 
[]
-0.2 -0.3 99 1024.4  1.3  726  293  -0.9       
09 20.03.11 080 (В) 1500 м  дымка{туман} [диам. гололёда 9 мм]  10/10 100 м 
[St]
+1.3 +1.1 99 1024.6  1.3  727  291           
12 20.03.11 070 (В) 4000 м  дымка{туман}  10/8 210 м средняя 
[St|Ac und]
+2.1 +2.1 100 -1  1024.6  0.2  727  290           
15 20.03.11 080 (В) 10 км    10/10 100 м 
[St]
+1.2 +0.9 98 -2  1025.2  727  291           
18 20.03.11 090 (В) 4000 м  дымка  10/10 60 м 
[St]
+0.9 +0.6 98 -2  1025.8    728  292    +2.8       
21 20.03.11 100 (В) 4000 м  дымка  10/10 100 м 
[St]
+0.8 +0.6 99 -3  1025  -0.7  727  292           
00 21.03.11 100 (В) 4000 м  дымка  10/10 100 м 
[St]
+0.9 +0.6 98 -3  1023.8  -1.1  726  291           
03 21.03.11 090 (В) 3000 м  дымка  10/10 60 м 
[St]
+0.6 +0.4 99 -3  1023.6  -0.3  726  292           
06 21.03.11 100 (В) 0200 м  туман  ?/?  
+0.9 +0.8 99 -3  1023.7  0.1  726  291           
09 21.03.11 090 (В) >10 км  {туман}  10/10 150 м 
[St]
+1.9 +1.1 94 -2  1022  -1.4  725  290           
12 21.03.11 080 (В) 0400 м  туман  ?/?  
+1 +0.7 98 -3  1021  -1.2  724  291           
15 21.03.11 080 (В) 0100 м  туман  ?/?  
-0.7 -0.8 99 -5  1021.9  0.5  725  293           
18 21.03.11 080 (В) 0100 м  туман  ?/?  
-0.1 -0.2 99 -4  1022.2  0.4  725  292           
21 21.03.11 060 (СВ) 0800 м  слаб. ливневой снег{туман}  ?/?  
-0.4 -0.5 99 -2  1021.4  -0.8  724  292           
00 22.03.11 040 (СВ) 0300 м  слаб. ливневой снег{туман}  ?/?  
-0.7 -0.8 99 -3  1021.2  -0.3  724  292           
03 22.03.11 050 (СВ) 0600 м  слаб. ливневой снег{туман} [диам. гололёда 5 мм]  ?/?  
-1.1 -1.2 99 -4  1022  0.8  725  293        12  неравномерный
мокрый или
старый снег
100% 
06 22.03.11 010 (С) 2000 м  ливневой снег{туман} [диам. гололёда 5 мм]  10/8 150 м кучево-дожд., средняя 
[Cb cap|Ac und]
-1.2 -1.4 99 -2  1023.7  1.5  726  294  -1.4    12  неравномерный
мокрый или
старый снег
100% 
09 22.03.11 360 (С) >10 км  в посл. час ливневой снег  10/8 150 м кучево-дожд., средняя 
[Cb cap|Ac und]
-0.1 -0.3 99 -2  1023.8  0.3  726  293           
12 22.03.11 340 (С) 2000 м  дымка{ливн. осадки, туман}  10/10 60 м 
[St]
-1 -1.1 99 -3  1024.5  0.5  726  294           
15 22.03.11 340 (С) 0300 м  туман{ливн. осадки}  ?/?  
-1.4 -1.5 99 -4  1025.1  0.4  727  294           
18 22.03.11 340 (С) 0800 м  слаб. снег{ливн. осадки}  ?/?  
-1.6 -1.7 99 -4  1026.1  0.9  727  295         
21 22.03.11 280 (З) 4000 м  дымка{снег, туман}  10/10 210 м 
[St]
-2 -2.2 99 -1  1025.7  -0.5  727  295           
00 23.03.11 310 (СЗ) >10 км  {снег, туман}  10/8 700 м средняя 
[Sc|Ac und]
-2.3 -2.6 98 -3  1025  -0.7  726  295           
03 23.03.11 280 (З) >10 км    10/4 600 м средняя 
[Sc|Ac und]
-2.5 -2.9 97 -2  1024.5  -0.5  726  296        12  неравномерный
мокрый или
старый снег
100% 
06 23.03.11 320 (СЗ) >10 км    5/5 600 м 
[Sc]
-0.8 -2.3 90 -2  1024  -0.2  726  294  -2.8    0.3  12  неравномерный
мокрый или
старый снег
100% 
09 23.03.11 260 (З) >10 км    3/3 600 м средняя 
[Sc|Ac trans]
+1.6 -1.6 79 +2  1021.5  -1.9  725  290           
12 23.03.11 280 (З) >10 км    3/3 <0100 м средняя 
[Ac trans]
+5.1 -5.7 46 +4  1018.4  -2.2  723  286           
15 23.03.11 280 (З) >10 км    8/0 средняя 
[Ac trans]
+3.7 -0.9 72 +1  1018  -0.6  722  287           
18 23.03.11 260 (З) >10 км    8/0 средняя 
[Ac trans]
+2.6 -1 77 -1  1017.8  -0.4  722  288    +5.6       
21 23.03.11 260 (З) >10 км    8/0 средняя 
[Ac trans]
+2.8 -1.7 72 -1  1016.3  -1.4  721  288           
00 24.03.11 250 (З) 11  10 км  в посл. час снег  10/10 800 м 
[Ns]
+2.3 +0.5 88 -2  1014.1  -2.2  719  287           
03 24.03.11 280 (З) 4000 м  слаб. дождь  10/10 300 м 
[Ns]
+1.3 +0.8 96 -3  1014.7  -2.2  720  288  +1.3    мокрый или
старый снег
10-40% 
06 24.03.11 270 (З) 4000 м  слаб. дождь  10/10 210 м 
[Ns]
+2.3 +1.2 92 -2  1015.6  1.1  721  288  +1.2    12  мокрый или
старый снег
10-40% 
09 24.03.11 270 (З) 12{18}  >10 км  {дождь}  8/8 300 м 
[Sc]
+5.4 -3.7 52 +1  1013.6  -1.3  720  285           
12 24.03.11 270 (З) 11{18}  >10 км  {дождь}  8/5 300 м кучево-дожд., средняя 
[Cb cap|Ac trans]
+6.3 -3.1 51 +3  1011.8  -1.5  718  283           
15 24.03.11 270 (З) 11{18}  >10 км    10/6 600 м кучево-дожд., средняя 
[Cb cap|Ac As]
+5.4 -2.4 57 +2  1010.7  -1.2  717  284           
18 24.03.11 250 (З) 12{19}  >10 км  {ливн. осадки}  10/5 600 м кучево-дожд., средняя 
[Cb cap|Ac und]
+4.6 -0.6 69 1011.2  0.3  718  284      0.3     
21 24.03.11 260 (З) 13{21}  >10 км  в посл. час ливневой дождь  10/6 600 м кучево-дожд., средняя 
[Cb cap|Ac As]
+4.9 +0.2 72 +1  1009.9  -1.3  717  284           
00 25.03.11 260 (З) 13{21}  >10 км  слаб. ливневой дождь  10/6 300 м кучево-дожд., средняя 
[Cb cap|Ac As]
+4.5 -0.3 71 1007.8  -2  715  283           
03 25.03.11 260 (З) 15{24}  >10 км  {ливн. осадки}  10/6 300 м кучево-дожд., средняя 
[Cb cap|Ac und]
+5 +0.1 71 1006  -1.6  714  282        мокрый или
старый снег
10-40% 
06 25.03.11 280 (З) 13-23{25}  1500 м  ливневой дождь со снегом  10/8 300 м кучево-дожд., средняя 
[Cb cap|Ac und]
+2.2 +1.3 94 -3  1008.9  0.2  716  286  +2.2    0.3  мокрый или
старый снег
10-40% 
09 25.03.11 280 (З) 12{22}  >10 км  {ливн. осадки}  8/8 300 м кучево-дожд. 
[Cb calv]
+5 -0.7 67 +1  1011  2.6  718  284           
12 25.03.11 290 (З) 9{18}  >10 км  слаб. ливневой дождь  10/8 600 м кучево-дожд., средняя 
[Cb cap|Ac und]
+4.3 +2.4 87 +1  1011.9  0.7  718  284           
15 25.03.11 290 (З) 8{19}  >10 км  {ливн. осадки}  5/5 600 м кучево-дожд. 
[Cb calv]
+4.5 +0.4 75 +1  1013.7  1.8  719  285           
18 25.03.11 250 (З) >10 км  {ливн. осадки}  4/0 средняя 
[Ac trans]
+4.9 +0.9 75 +1  1016.3  1.8  721  285    +5.8     
21 25.03.11 250 (З) >10 км    8/0 средняя 
[Ac trans]
+5.3 -1.5 61 +2  1015.7  -0.5  721  285           
00 26.03.11 250 (З) >10 км    4/0 средняя 
[Ac trans]
+5.1 -3.9 52 +2  1014.4  -1.3  720  285           
03 26.03.11 220 (ЮЗ) >10 км    3/0 верхняя 
[Ci fib]
+3.2 -5.4 53 +1  1014.3  -0.5  720  287           
06 26.03.11 250 (З) 11  >10 км    3/0 верхняя 
[Ci fib]
+11.5 -5.1 31 +9  1012.1  -0.5  719  279  +2.2         
09 26.03.11 260 (З) 14-20{24}  >10 км    8/0 верхняя 
[Ci fib]
+15.5 -2.6 29 +14  1010.3  -1  719  274           
12 26.03.11 260 (З) 13-20{23}  >10 км    8/3 600 м верхняя 
[Sc diur, vesp|Ci fib]
+16.6 -2.6 27 +15  1009.3  -0.7  718  273           
15 26.03.11 260 (З) 10{23}  >10 км    4/0 верхняя 
[Ci fib]
+13.9 -2.7 32 +12  1010.8  0.9  719  276           
18 26.03.11 230 (ЮЗ) >10 км    3/0 средняя 
[Ac trans]
+11.4 -3.2 36 +10  1012.7  1.4  720  279    +17.4       
21 26.03.11 230 (ЮЗ) >10 км    3/0 средняя 
[Ac trans]
+10.5 -4.7 34 +9  1012.4  -0.5  719  280           
00 27.03.11 200 (Ю) >10 км    1/0 средняя 
[Ac trans]
+8 -4 42 +7  1013.1  0.2  719  282           
03 27.03.11 330 (СЗ) >10 км    6/0 средняя, верхняя 
[Ac trans|Ci sp]
+9.5 -4.2 38 +10  1013.9  1.1  720  281           
06 27.03.11 140 (ЮВ) >10 км    8/0 средняя 
[Ac trans]
+10 -0.6 48 +11  1015.2  1.3  721  280  +7         
09 27.03.11 010 (С) >10 км    10/0 средняя 
[Ac As]
+12.3 +1.7 48 +12  1014.6  0.1  721  278           
12 27.03.11 070 (В) >10 км    10/0 средняя 
[Ac und]
+12.1 +4.1 58 +11  1014.6  721  278           
15 27.03.11 030 (СВ) >10 км    10/6 1000 м средняя 
[Sc|Ac As]
+5.1 +3.2 87 +3  1017.7  1.6  722  285           
18 27.03.11 100 (В) >10 км    10/0 средняя 
[Ac und]
+1.7 +0.8 94 1020  1.5  724  290    +13.9       
21 27.03.11 060 (СВ) >10 км    10/8 300 м средняя 
[Sc|Ac und]
+0.3 -0.1 97 -2  1020.7  0.4  724  291           
00 28.03.11 080 (В) 0200 м  туман  ?/?  
-1.4 -1.5 99 -5  1022.1  725  294           
03 28.03.11 100 (В) 0200 м  туман [диам. гололёда 2 мм]  ?/?  
-1.9 -2.1 99 -6  1022.8  0.5  725  294           
06 28.03.11 110 (В) 0100 м  туман [диам. гололёда 5 мм]  ?/?  
-1.3 -1.5 99 -5  1023.3  0.6  725  294  -2.2         
09 28.03.11 110 (В) 2000 м  дымка{туман} [диам. гололёда 9 мм]  10/10 100 м 
[St]
-0.2 -0.3 99 -4  1022.5  -0.5  725  292           
12 28.03.11 110 (В) >10 км  {туман}  10/8 330 м средняя 
[Sc|Ac und]
+2.4 +0.4 87 -1  1021.7  -0.3  725  289           
15 28.03.11 130 (ЮВ) 10 км    10/10 180 м 
[St]
+2.1 +0.9 92 -1  1021.7  725  290           
18 28.03.11 160 (Ю) 10 км    10/10 210 м 
[St]
+1.6 +0.9 95 -1  1022.1  0.2  725  290    +2.9       
21 28.03.11 160 (Ю) 10 км    5/5 200 м 
[St]
+0.3 +0.1 99 -2  1021.6  -0.8  724  291           
00 29.03.11 170 (Ю) >10 км    ясно 
-0.5 -0.7 98 -1  1021.2  -0.5  724  292           
03 29.03.11 180 (Ю) >10 км    3/0 средняя 
[Ac trans]
-0.3 -0.8 96 1021.5  0.3  724  292           
06 29.03.11 150 (ЮВ) >10 км    5/0 верхняя 
[Ci fib]
+7.1 +3.1 76 +7  1020.4  0.5  725  284  -2.3         
09 29.03.11 320 (СЗ) >10 км    8/0 средняя, верхняя 
[Ac trans|Ci]
+14.2 +3.3 48 +15  1018.7  -0.4  724  277           
12 29.03.11 330 (СЗ) >10 км    4/3 600 м верхняя 
[Cu med, cong|Ci fib]
+15.3 +3 44 +16  1017.6  -0.9  724  276           
15 29.03.11 140 (ЮВ) >10 км    8/5 600 м кучево-дожд., верхняя 
[Cb calv|Ci fib]
+12.9 +4 55 +13  1018.1  0.1  724  278           
18 29.03.11 140 (ЮВ) >10 км    4/0 средняя 
[Ac trans]
+9.1 +4.3 72 +9  1019.3  0.5  724  282    +15.8       
21 29.03.11 260 (З) >10 км    ясно 
+5.3 +2 79 +4  1019.8  -0.3  724  286           
00 30.03.11 330 (СЗ) >10 км    3/0 средняя 
[Ac trans]
+6.3 +2.3 76 +7  1018.9  -0.7  723  284           
03 30.03.11 320 (СЗ) >10 км    5/0 верхняя 
[Ci fib]
+6.7 +3.2 78 +6  1019.7  0.9  724  284           
06 30.03.11 040 (СВ) 2500 м  дымка{туман}  4/3 100 м средняя 
[St|Ac trans]
+7.6 +5.7 88 +8  1021.4  1.8  725  283  +4.5         
09 30.03.11 020 (С) 10 км    6/4 300 м средняя 
[Sc|Ac trans]
+11.3 +6.5 72 +12  1021  0.3  726  280           
12 30.03.11 010 (С) >10 км    8/3 600 м средняя, верхняя 
[Sc|Ac trans|Ci sp]
+13.5 +7 65 +14  1019.8  -0.7  725  277           
15 30.03.11 010 (С) 10 км  слаб. дождь  10/4 600 м средняя 
[Sc|Ac und]
+11.4 +6.4 71 +12  1021  0.7  726  280           
18 30.03.11 070 (В) 10 км  слаб. дождь  10/5 600 м средняя 
[Sc|Ac und]
+8.6 +7.1 90 +9  1022.4  0.8  726  282    +14.1       
21 30.03.11 110 (В) >10 км  в посл. час дождь  10/4 600 м средняя 
[Sc|Ac und]
+8.3 +6.6 89 +8  1021.6  -0.8  726  283           
00 31.03.11 110 (В) н/о    н/о 
+7.3 +6.6 95 +7  1020.9  -0.8  725  283           
03 31.03.11 100 (В) 1500 м  слаб. дождь{туман}  10/10 100 м 
[St|Ns]
+6 +5.8 99 +4  1021.1  0.1  725  285           
06 31.03.11 140 (ЮВ) 4000 м  слаб. дождь{туман}  10/10 240 м 
[Ns]
+7.2 +6.1 93 +6  1022.1  1.2  726  284  +5.8         
09 31.03.11 160 (Ю) >10 км  {дождь}  10/6 480 м средняя 
[Sc|Ac und]
+11.8 +7.2 73 +11  1021  -0.2  726  279           
12 31.03.11 260 (З) >10 км  {дождь}  9/5 600 м средняя 
[Sc|Ac trans]
+14.7 +5.7 55 +14  1019.6  -0.8  725  276           
15 31.03.11 350 (С) 10 км  гроза без осадков{ливн. осадки}  10/8 800 м кучево-дожд., средняя 
[Cb calv|Ac und]
+10.9 +9.2 89 +12  1021.3  726  280           
18 31.03.11 330 (СЗ) >10 км  дымка{гроза, ливн. осадки}  10/6 200 м средняя 
[St|Ac und]
+8.7 +8.3 97 +8  1023.3  1.4  727  282    +15.5     
21 31.03.11 320 (СЗ) 0200 м  туман  ?/?  
+7.5 +7.3 99 +7  1024.2  0.7  727  284           
00 01.04.11 360 (С) 0400 м  туман  ?/?  
+6.7 +6.6 99 +6  1024.9  0.5  728  285           
03 01.04.11 020 (С) 0200 м  туман{морось}  10/0 
[]
+6 +5.9 99 +6  1026.5  1.3  729  286           
Время (UTC), дата Ветер
(°,м/с) 
Видим.   Явления Облачность Т
(°С)
Тd
(°С)
f(%) Тe
(°С)
Pmin
(гПа)
dP
(гПа)
Po
(мм)
O2
(г/м3)
Тmin Tmax R s Состояние
почвы